CZ-3C DEB, 40816

Orbit data source: Space-Track

CZ-3C DEB, 40816 is space debris in HEO originally from a launch on Sun, 31 Oct 2010 UTC launched from the Xichang Space Center, China (XSC). Debris objects in space refer to the collection of defunct objects orbiting the Earth. Examples of debris include non-operational satellites, rocket bodies, and fragments generated from explosions, collisions, or faulty payload assembly.

Loading next visibility...
CZ-3C DEB details
Identifier
40816, 2010-057AH
Orbit
HEO
Last TLE update2 months ago
Origin
Flag of CNCASC (CN / PRC)
ManufacturerCALT
MissionSpacecraft
Bus & MotorUnknown
MassUnknown
Launch date (UTC)
2010-10-31 (14 years ago)
Launch vehicleUnknown
Launch site
Xichang Space Center, China (XSC)
Object type
Payload
Rocket body
Debris
Shape & HBRUnknown
Radar Cross SectionSmall (<0.1 m²)

Expand to show TLE details & history

TLE from 2 months ago
0 CZ-3C DEB
1 40816U 10057AH  24298.43136527 -.00000069  00000-0 -64025-4 0  9996
2 40816  19.7804 245.1152 7117488 261.2264  19.5039  2.29515110 85915
Epoch: 2024-10-24T10:21Z
Definitive object data (Epoch: 2024-10-24T10:21:09.959Z)
Latitude-0.00014°
Longitude56.42022°
Altitude7,053.72 km
Speed6.552 km/s
True Right ascension16h 20m 06s
True Declination0° 00' 00"
Sunlit
Object was in daylight at TLE epoch
Visualization TLE readout
Latitude19.70316°
Longitude126.23401°
Altitude24,781.396 km
Speed3.028 km/s
Apparent Right ascension21h 37m 48s
Apparent Declination12° 30' 21"
Sunlit
Object is in daylight
Visualization observer readout
Local Sidereal Time15:36:42
Azimuth80.174° E
Elevation7.779°
Doppler factor1
Orbital elements
Apogee altitude35,185.369 km
Perigee altitude620.98 km
Semi-major axis24,281.311 km
Eccentricity0.7117488
Inclination19.7804°
RAAN245.1152°
Arg. of periapsis261.2264°
True anomaly99.03571°
Mean anomaly19.5039°
Eccentric anomaly51.35405°
Mean motion0.57363 °/min
BSTAR-0.000064025
Orbital period627.58 mins
Loading maneuver chart data...
Loading historical data...
Loading historical data...
Loading historical data...
Loading historical data...
Loading historical data...
Loading historical data...
Loading historical data...

CZ-3C DEB Visibility forecast

Observer location: undefined°, undefined

Span
Click to sort rows by Start time (UTC) header in descending order
Start Az.
Max El. time (UTC)
Max El. Az.
Max El.
End time (UTC)
End Az.
373 mins2024-12-26 17:02:34.277Z81.435° E2024-12-26 21:27:34.277Z105.192° ESE23.438°2024-12-26 23:15:34.277Z111.744° ESE
86 mins2024-12-27 02:30:34.277Z277.483° WNW2024-12-27 03:07:34.277Z277.302° WNW11.453°2024-12-27 03:56:34.277Z278.376° WNW
|